Temp
-6 -6 -6 -6 -6 -6 -6 -6 -6 -6 -6 -6 -6 -6 -6 -5 -5 -5 -6 -6 -6 -6 -7 -7 -7 -7 -7 -7 -7 -6 -6 -6 -7 -6 -7 -7 -6 -7 -7 -6 -6 -6 -6
-6 -6 -6 -7 -7 -6 -6 -6 -6 -6 -6 -6 -6 -6 -6 -6 -6 -5 -6 -6 -6 -6 -6 -7 -7 -7 -7 -7 -7 -7 -6 -6 -7 -7 -6 -6 -6 -7 -7 -7 -7 -6 -6
-6 -6 -6 -6 -6 -6 -6 -6 -6 -6 -6 -6 -6 -6 -6 -7 -6 -6 -7 -7 -6 -6 -6 -6 -6 -7 -7 -7 -6 -6 -6 -6 -6 -7 -7 -6 -6 -6 -7 -7 -7 -7 -7
-7 -6 -7 -6 -6 -7 -7 -6 -6 -6 -6 -6 -6 -6 -6 -6 -7 -7 -7 -7 -6 -6 -6 -6 -6 -7 -6 -7 -7 -7 -6 -6 -6 -6 -7 -6 -7 -6 -6 -6 -7 -7 -6
-7 -7 -7 -7 -7 -7 -7 -7 -7 -6 -6 -6 -6 -6 -6 -6 -6 -6 -7 -7 -7 -7 -7 -7 -7 -7 -7 -7 -7 -7 -7 -7 -7 -7 -6 -6 -6 -6 -6 -6 -6 -6 -7
-8 -7 -6 -6 -7 -7 -7 -7 -7 -6 -6 -6 -6 -7 -6 -6 -6 -7 -6 -6 -7 -7 -8 -7 -7 -7 -7 -7 -7 -7 -7 -7 -6 -7 -6 -6 -6 -6 -6 -6 -6 -6 -7
-8 -7 -7 -8 -8 -7 -7 -7 -7 -6 -7 -7 -7 -7 -7 -7 -7 -7 -7 -7 -7 -7 -7 -7 -8 -9 -10 -10 -9 -9 -7 -6 -6 -6 -7 -6 -6 -6 -6 -6 -7 -6 -6
-9 -9 -8 -8 -8 -8 -8 -8 -8 -7 -7 -7 -7 -7 -7 -7 -7 -7 -7 -7 -7 -7 -7 -7 -7 -8 -9 -9 -8 -8 -7 -7 -7 -7 -7 -7 -7 -6 -6 -7 -7 -7 -6
-9 -9 -8 -8 -8 -8 -8 -7 -7 -7 -7 -7 -7 -8 -8 -8 -8 -7 -7 -7 -7 -7 -7 -7 -7 -7 -7 -7 -7 -7 -7 -6 -7 -7 -7 -8 -7 -7 -7 -7 -7 -6 -7
-9 -9 -8 -8 -8 -8 -8 -7 -7 -7 -7 -8 -8 -8 -9 -8 -8 -8 -8 -8 -7 -8 -8 -7 -7 -7 -7 -7 -7 -7 -7 -6 -6 -6 -6 -7 -6 -6 -6 -7 -7 -7 -7
-8 -8 -8 -8 -8 -8 -8 -8 -8 -8 -8 -9 -8 -9 -9 -9 -9 -8 -8 -8 -8 -8 -8 -7 -7 -7 -7 -7 -7 -7 -6 -6 -6 -6 -6 -6 -6 -6 -6 -6 -6 -6 -6
-9 -8 -9 -8 -8 -8 -8 -8 -8 -8 -9 -9 -9 -10 -9 -9 -9 -9 -8 -8 -8 -8 -8 -8 -8 -7 -7 -7 -7 -7 -7 -6 -6 -6 -6 -6 -6 -6 -6 -6 -6 -6 -6
-9 -9 -9 -9 -9 -9 -9 -9 -9 -9 -9 -9 -9 -9 -9 -9 -9 -9 -9 -8 -8 -8 -8 -8 -8 -8 -8 -7 -7 -7 -7 -7 -7 -6 -6 -6 -6 -6 -6 -6 -6 -6 -6
-10 -10 -10 -10 -10 -10 -10 -10 -10 -10 -10 -10 -10 -10 -10 -10 -9 -9 -9 -9 -8 -8 -8 -8 -8 -8 -8 -8 -8 -7 -7 -7 -6 -6 -7 -7 -6 -6 -6 -6 -6 -6 -6
-10 -10 -10 -10 -11 -11 -11 -11 -11 -10 -10 -10 -10 -10 -9 -10 -9 -9 -9 -9 -8 -8 -9 -9 -9 -8 -8 -8 -8 -8 -7 -7 -7 -7 -7 -7 -7 -7 -7 -7 -7 -6 -6
-11 -11 -11 -11 -11 -11 -11 -11 -11 -11 -10 -10 -10 -10 -10 -9 -9 -9 -9 -9 -9 -9 -8 -8 -8 -8 -8 -8 -8 -8 -8 -8 -8 -7 -7 -7 -7 -7 -7 -7 -7 -7 -7
-11 -11 -11 -11 -11 -11 -11 -11 -11 -11 -11 -10 -10 -10 -9 -9 -9 -9 -9 -9 -9 -9 -9 -9 -8 -8 -8 -8 -8 -8 -8 -8 -8 -8 -8 -8 -8 -8 -8 -8 -8 -7 -7
-12 -12 -12 -12 -12 -12 -12 -11 -11 -11 -11 -11 -10 -10 -9 -9 -9 -9 -9 -9 -9 -9 -9 -9 -8 -9 -9 -9 -8 -8 -8 -9 -8 -8 -8 -8 -8 -8 -8 -8 -8 -8 -7
-12 -12 -12 -12 -12 -11 -11 -11 -11 -11 -11 -11 -11 -11 -10 -9 -9 -9 -9 -9 -9 -9 -9 -9 -9 -9 -9 -9 -9 -9 -9 -9 -9 -9 -9 -8 -8 -8 -8 -8 -8 -8 -8
-13 -12 -12 -12 -12 -12 -12 -11 -11 -11 -11 -11 -11 -11 -10 -10 -10 -9 -9 -9 -9 -9 -9 -9 -9 -9 -9 -9 -9 -9 -9 -9 -9 -9 -9 -9 -9 -9 -9 -9 -9 -9 -9
-13 -13 -13 -12 -12 -12 -12 -12 -12 -12 -12 -12 -11 -11 -11 -11 -11 -11 -11 -10 -10 -9 -10 -10 -10 -10 -10 -10 -10 -10 -10 -10 -10 -10 -10 -10 -10 -9 -9 -9 -9 -9 -9
-13 -13 -13 -13 -13 -13 -13 -13 -13 -13 -13 -13 -13 -13 -12 -12 -12 -13 -12 -12 -12 -12 -12 -11 -11 -11 -11 -12 -12 -12 -12 -12 -12 -12 -11 -11 -11 -10 -10 -10 -10 -10 -10
-14 -14 -14 -15 -15 -15 -15 -15 -15 -14 -14 -14 -14 -14 -14 -13 -13 -13 -13 -13 -13 -13 -13 -12 -12 -12 -12 -12 -12 -12 -13 -13 -13 -13 -13 -12 -11 -11 -11 -11 -10 -10 -10
-15 -16 -16 -16 -16 -16 -16 -16 -15 -15 -15 -14 -14 -14 -14 -13 -13 -14 -13 -13 -13 -13 -13 -13 -12 -12 -12 -12 -12 -12 -13 -13 -13 -13 -13 -13 -12 -12 -12 -12 -12 -11 -11
-16 -17 -17 -17 -16 -16 -16 -16 -16 -15 -15 -14 -14 -14 -14 -13 -14 -14 -14 -14 -14 -14 -14 -13 -13 -13 -13 -13 -13 -13 -13 -13 -13 -13 -13 -13 -12 -12 -12 -12 -12 -12 -12
-17 -17 -17 -17 -16 -16 -16 -16 -16 -15 -15 -15 -14 -14 -14 -13 -14 -14 -14 -14 -14 -14 -14 -14 -14 -14 -14 -14 -14 -14 -14 -14 -14 -13 -13 -13 -13 -13 -13 -13 -13 -13 -13
Height
5884 5882 5879 5877 5874 5871 5869 5866 5863 5860 5858 5854 5852 5847 5844 5843 5842 5842 5842 5844 5847 5849 5852 5856 5858 5861 5861 5863 5864 5865 5866 5867 5869 5867 5870 5872 5871 5871 5871 5871 5872 5872 5873
5882 5879 5876 5873 5871 5869 5867 5865 5862 5859 5856 5853 5851 5847 5844 5840 5837 5835 5836 5838 5842 5844 5845 5849 5851 5853 5854 5855 5857 5859 5859 5860 5862 5861 5863 5865 5866 5867 5867 5867 5867 5868 5868
5880 5878 5875 5871 5868 5866 5864 5863 5860 5858 5855 5852 5847 5845 5842 5838 5835 5833 5833 5834 5835 5837 5838 5842 5844 5844 5847 5848 5850 5851 5851 5852 5855 5856 5856 5857 5858 5860 5861 5862 5862 5862 5863
5876 5875 5872 5868 5865 5862 5861 5859 5857 5855 5853 5850 5847 5843 5840 5838 5835 5833 5831 5831 5831 5832 5832 5835 5837 5838 5839 5839 5841 5843 5844 5847 5848 5849 5849 5850 5852 5852 5854 5855 5856 5856 5858
5873 5871 5868 5865 5862 5858 5856 5855 5853 5850 5848 5845 5843 5841 5838 5836 5834 5832 5830 5828 5827 5827 5826 5827 5829 5830 5831 5833 5834 5835 5836 5838 5840 5841 5842 5843 5844 5844 5845 5847 5850 5851 5852
5868 5866 5862 5860 5857 5855 5853 5850 5848 5845 5843 5841 5838 5836 5834 5832 5830 5828 5827 5826 5825 5823 5821 5821 5821 5820 5821 5821 5824 5826 5827 5828 5831 5833 5832 5834 5835 5837 5838 5839 5842 5843 5845
5862 5858 5855 5853 5849 5848 5846 5844 5842 5839 5837 5835 5833 5830 5828 5826 5825 5824 5823 5822 5820 5819 5817 5816 5814 5813 5814 5816 5817 5818 5820 5820 5821 5824 5825 5826 5826 5828 5830 5832 5833 5835 5837
5853 5851 5849 5848 5844 5843 5840 5836 5832 5829 5827 5826 5825 5823 5821 5818 5818 5816 5815 5814 5813 5812 5812 5811 5810 5810 5810 5811 5812 5812 5813 5812 5813 5815 5817 5818 5818 5819 5821 5823 5824 5827 5829
5849 5847 5844 5843 5839 5835 5832 5829 5825 5822 5818 5814 5812 5812 5812 5810 5810 5808 5807 5805 5805 5805 5804 5803 5803 5802 5802 5805 5806 5806 5806 5806 5807 5808 5808 5809 5810 5811 5812 5814 5816 5817 5819
5844 5840 5837 5836 5831 5827 5824 5819 5815 5813 5809 5805 5801 5799 5799 5799 5798 5799 5798 5796 5795 5795 5795 5795 5794 5794 5793 5795 5797 5798 5798 5798 5800 5801 5802 5802 5804 5804 5805 5805 5807 5808 5810
5835 5831 5828 5826 5822 5818 5813 5808 5803 5800 5795 5793 5791 5788 5787 5787 5786 5786 5787 5787 5787 5786 5785 5785 5785 5786 5785 5785 5787 5788 5789 5790 5791 5792 5793 5794 5795 5796 5797 5798 5799 5800 5801
5824 5821 5817 5813 5809 5805 5800 5794 5790 5787 5785 5782 5780 5778 5776 5775 5775 5774 5774 5776 5776 5777 5775 5775 5775 5775 5775 5776 5776 5778 5780 5780 5782 5784 5785 5785 5786 5787 5788 5789 5790 5791 5793
5815 5811 5806 5802 5798 5794 5788 5785 5781 5777 5774 5771 5769 5767 5766 5764 5763 5763 5764 5764 5765 5765 5765 5765 5764 5764 5765 5765 5766 5767 5769 5770 5772 5774 5776 5777 5777 5779 5779 5780 5781 5782 5783
5803 5798 5795 5792 5789 5784 5779 5775 5771 5768 5765 5762 5759 5757 5755 5754 5752 5751 5751 5751 5752 5753 5753 5753 5753 5753 5753 5753 5754 5755 5757 5760 5762 5764 5765 5766 5767 5768 5769 5769 5770 5772 5773
5792 5789 5786 5783 5779 5774 5769 5765 5762 5758 5755 5753 5749 5747 5746 5745 5742 5741 5740 5739 5738 5738 5740 5740 5741 5741 5741 5741 5742 5743 5744 5746 5749 5752 5753 5754 5756 5757 5758 5758 5759 5760 5762
5783 5779 5776 5771 5766 5762 5759 5755 5750 5748 5745 5741 5739 5737 5735 5733 5732 5730 5729 5728 5727 5726 5726 5727 5727 5727 5728 5728 5729 5730 5731 5733 5735 5737 5740 5742 5743 5744 5745 5746 5748 5749 5750
5772 5767 5763 5759 5755 5751 5748 5745 5743 5738 5733 5730 5727 5724 5722 5721 5719 5717 5715 5714 5714 5713 5712 5711 5713 5713 5714 5715 5716 5716 5717 5717 5719 5721 5723 5726 5729 5731 5732 5733 5734 5735 5737
5759 5756 5752 5749 5745 5741 5737 5734 5731 5728 5725 5720 5714 5710 5707 5705 5704 5703 5701 5699 5698 5697 5697 5697 5697 5697 5698 5700 5700 5702 5703 5703 5704 5705 5707 5710 5713 5715 5718 5719 5720 5721 5723
5750 5746 5742 5738 5734 5730 5726 5722 5717 5712 5709 5705 5701 5698 5694 5690 5688 5686 5684 5683 5682 5680 5680 5680 5680 5680 5681 5682 5683 5684 5685 5687 5689 5690 5692 5693 5695 5698 5701 5704 5706 5707 5708
5740 5736 5732 5727 5723 5717 5713 5708 5703 5698 5694 5689 5685 5681 5678 5676 5672 5668 5665 5663 5661 5661 5660 5659 5660 5660 5660 5661 5662 5664 5666 5668 5670 5673 5675 5677 5679 5682 5684 5687 5689 5692 5694
5730 5726 5721 5715 5710 5704 5699 5694 5689 5683 5679 5674 5669 5663 5659 5656 5652 5648 5644 5642 5639 5638 5637 5636 5636 5636 5638 5639 5640 5642 5645 5648 5650 5653 5656 5659 5662 5665 5667 5669 5672 5675 5678
5720 5715 5709 5703 5698 5692 5686 5681 5675 5669 5664 5658 5653 5646 5640 5636 5632 5628 5624 5622 5620 5619 5618 5618 5618 5617 5618 5618 5619 5621 5624 5627 5630 5633 5637 5640 5644 5648 5651 5653 5655 5657 5661
5709 5703 5697 5692 5686 5680 5674 5667 5661 5655 5649 5643 5637 5632 5626 5621 5616 5612 5608 5606 5604 5603 5603 5602 5602 5602 5601 5602 5604 5605 5607 5610 5613 5615 5619 5622 5626 5630 5634 5637 5640 5642 5644
5698 5693 5688 5682 5675 5669 5663 5657 5651 5644 5637 5630 5623 5616 5610 5605 5602 5598 5595 5592 5590 5589 5589 5590 5590 5590 5589 5589 5591 5592 5594 5596 5598 5600 5604 5608 5612 5616 5619 5622 5624 5626 5627
5689 5684 5679 5673 5667 5661 5655 5648 5641 5634 5626 5617 5608 5601 5595 5592 5590 5586 5584 5581 5579 5578 5578 5579 5580 5580 5580 5580 5580 5580 5582 5583 5585 5586 5589 5593 5597 5600 5604 5606 5609 5611 5613
5682 5677 5672 5666 5659 5653 5647 5639 5631 5623 5613 5603 5595 5589 5585 5584 5581 5578 5575 5572 5570 5569 5569 5570 5571 5571 5572 5572 5571 5571 5572 5572 5573 5574 5576 5580 5583 5586 5589 5592 5595 5598 5601
Wind_Speed
17 21 20 17 16 17 20 21 21 20 19 21 24 17 14 16 16 20 28 27 36 38 40 36 29 30 31 30 28 26 27 28 29 30 26 23 22 19 18 14 14 14 15
16 17 21 18 18 18 17 19 22 23 21 20 17 18 17 15 18 18 22 25 34 37 38 32 35 34 33 33 33 29 25 27 29 31 29 28 26 22 22 21 20 20 18
16 17 19 19 17 19 21 21 19 20 22 22 22 19 16 15 16 13 13 18 23 26 31 34 39 34 35 31 28 27 29 25 28 26 30 30 31 26 24 24 25 27 24
18 17 17 18 18 19 20 21 22 23 21 19 20 21 19 15 17 14 12 20 23 29 29 33 33 33 35 39 34 28 30 26 26 26 26 27 30 31 29 27 21 20 24
22 21 18 16 18 19 22 24 23 24 25 25 22 19 20 20 18 19 18 18 14 28 35 33 34 33 30 30 29 30 28 31 31 28 27 28 28 32 33 31 24 23 26
25 24 21 20 20 21 22 23 25 26 25 25 26 25 21 21 22 20 20 21 20 20 18 25 30 29 24 29 30 29 28 29 35 33 29 30 32 33 35 34 29 27 25
22 21 24 27 31 32 31 30 27 28 30 30 29 27 28 26 23 24 23 23 23 22 24 26 23 17 12 15 17 20 23 29 31 36 33 30 29 32 30 30 32 32 31
20 24 27 31 32 35 34 34 36 38 37 35 32 31 30 32 29 27 27 26 26 26 26 27 25 25 23 21 21 21 23 21 23 22 26 24 24 26 28 33 33 33 34
24 26 29 32 35 37 37 37 37 40 43 44 40 34 32 35 34 31 30 30 29 29 28 27 28 29 28 27 26 26 25 21 21 21 23 23 21 24 28 27 31 31 32
33 34 35 39 39 40 41 41 41 41 39 40 40 40 37 35 38 35 33 33 32 31 30 29 28 28 29 29 28 29 27 25 23 21 23 23 24 23 21 27 33 32 29
35 37 40 42 41 43 44 45 43 41 39 39 38 40 40 37 37 38 36 35 34 33 33 31 30 29 30 29 27 27 28 28 26 24 23 23 23 24 25 25 25 27 29
35 37 39 41 45 46 46 43 43 43 39 36 36 37 38 39 38 38 36 34 33 34 36 35 34 32 32 31 30 29 28 29 29 27 25 25 26 27 26 24 26 28 30
38 40 41 43 43 43 41 40 39 39 39 37 35 35 37 39 41 40 37 37 37 36 37 37 37 36 35 35 35 34 33 33 32 30 29 28 29 29 30 30 30 29 28
39 39 39 38 39 39 39 37 36 36 35 34 33 31 30 32 37 41 43 44 43 44 43 42 40 39 39 39 38 38 37 36 36 35 34 33 31 30 31 33 34 33 31
37 35 36 37 37 36 35 35 36 36 36 34 34 34 33 32 33 33 35 39 42 40 39 40 42 42 42 42 43 42 42 41 39 38 39 38 37 36 35 36 36 37 36
35 36 36 36 35 35 35 35 37 36 35 36 36 36 36 37 37 38 39 39 39 40 39 38 39 40 40 42 44 44 45 45 44 43 42 42 41 41 40 40 40 39 39
38 38 39 38 38 39 39 36 35 37 39 39 40 40 41 40 41 41 42 42 42 42 43 44 44 44 45 45 46 47 47 48 48 47 46 44 43 43 43 43 43 42 41
42 42 41 41 39 38 38 38 39 39 39 41 43 43 42 42 41 41 41 43 44 45 45 47 48 48 48 48 49 49 49 49 49 50 49 48 47 45 44 43 44 46 45
42 41 38 37 38 39 40 41 41 42 42 43 42 43 45 45 46 46 47 46 48 49 49 49 49 50 52 53 54 54 54 53 53 53 53 52 51 50 48 45 44 45 46
38 38 40 41 42 43 44 45 47 48 48 48 48 48 48 49 50 52 53 54 54 53 54 54 55 56 56 56 56 56 57 56 55 55 54 53 53 53 52 51 50 47 47
40 42 45 47 48 49 51 52 52 51 51 52 52 53 55 56 55 56 55 55 55 54 52 50 51 52 55 57 59 60 59 57 56 55 55 54 54 54 54 54 54 52 51
44 46 47 49 50 52 52 53 53 54 55 55 54 53 54 52 51 50 49 45 44 43 44 43 43 45 46 45 49 55 58 58 57 56 55 55 53 53 53 53 54 54 52
46 48 49 48 48 48 48 48 48 48 47 46 46 45 48 48 45 45 40 38 38 37 36 35 36 37 38 41 42 43 45 47 50 53 53 54 54 53 52 52 54 56 57
45 43 43 43 42 43 42 44 44 44 45 46 46 47 43 40 38 36 33 34 34 33 34 32 31 30 32 35 38 39 39 41 44 46 48 48 48 47 48 49 50 50 52
39 39 39 39 39 39 41 41 44 46 48 48 49 44 36 28 31 30 32 31 28 26 27 28 28 28 27 28 31 34 35 37 38 41 42 42 42 44 45 45 43 42 42
32 34 35 36 37 37 38 40 44 46 47 47 43 34 26 25 25 26 24 21 19 19 20 22 23 22 23 25 27 29 30 32 33 34 35 36 37 38 39 39 38 38 38
Wind_Direction
346 351 346 338 343 347 351 351 350 353 348 346 346 330 294 273 273 284 262 257 247 248 246 235 235 245 251 255 258 266 259 251 252 259 256 257 262 272 275 265 253 241 246
335 341 343 331 330 337 341 344 347 349 348 344 350 341 345 301 292 279 261 256 242 244 239 238 243 247 252 257 254 256 261 251 248 253 255 253 253 255 264 263 251 249 244
319 329 332 333 324 327 327 328 333 339 345 342 340 340 342 336 328 298 285 269 248 223 242 260 255 250 252 259 259 256 270 247 248 249 257 255 250 250 253 257 269 251 252
312 308 315 328 325 318 314 318 323 326 329 336 337 332 329 326 319 323 293 261 257 248 256 253 257 253 258 258 256 262 254 254 250 249 254 254 252 254 252 262 263 247 244
301 297 303 312 322 322 316 312 313 315 316 320 324 328 324 318 310 305 303 307 306 256 251 244 254 254 255 254 255 257 255 251 253 252 253 260 260 254 254 255 253 253 257
293 296 298 309 316 313 310 306 307 308 307 305 308 312 313 314 306 299 298 294 291 294 298 265 259 251 249 254 257 253 262 253 247 247 251 257 262 255 258 253 254 255 260
293 307 312 313 313 312 310 308 305 303 304 303 297 295 300 298 299 297 289 285 283 280 280 283 294 277 279 279 260 252 257 255 253 255 256 255 260 254 260 256 253 251 255
308 305 305 300 299 299 298 299 302 303 302 299 293 288 286 287 291 292 291 283 277 273 270 271 274 272 271 270 272 267 262 255 259 249 241 253 256 252 251 250 254 256 257
296 299 301 296 292 293 293 294 294 294 296 297 295 288 282 279 280 282 285 283 279 275 271 268 270 271 269 266 269 268 263 261 254 257 250 253 259 258 255 250 250 249 258
284 292 294 292 293 292 291 293 294 294 291 287 287 285 280 276 275 274 276 278 280 279 273 270 267 268 269 268 265 262 263 263 263 258 255 256 259 262 261 254 250 253 258
285 286 289 292 293 293 295 295 296 295 295 290 284 281 277 276 273 272 270 272 274 275 274 270 267 266 266 266 263 262 262 263 261 260 262 264 265 268 267 263 260 260 263
294 295 296 296 297 297 296 297 296 295 294 289 286 281 277 273 274 273 272 270 270 271 273 273 271 266 265 266 265 263 260 260 260 260 257 258 262 266 269 270 271 267 265
297 296 297 296 294 294 295 294 295 293 291 290 285 281 275 275 272 270 270 271 271 270 270 271 271 269 265 264 263 261 261 260 260 260 261 261 264 268 270 268 268 268 266
296 297 299 299 298 296 294 295 295 293 291 290 290 288 284 276 272 270 268 268 270 271 268 266 265 267 268 266 265 263 262 259 259 261 261 262 265 268 270 271 271 270 270
300 299 298 296 295 295 297 296 294 293 292 291 291 290 287 285 282 278 274 273 274 272 269 265 263 262 262 263 262 263 265 265 264 263 262 263 263 264 264 266 266 267 270
303 301 300 299 299 299 298 296 295 293 293 293 292 289 288 286 282 281 280 276 274 275 273 268 266 264 263 263 263 262 261 262 263 262 262 263 262 262 261 262 263 263 264
306 306 304 302 299 297 297 295 294 297 296 294 292 290 288 284 283 282 279 276 274 273 272 270 269 267 265 263 262 262 263 265 265 266 264 261 260 259 260 261 261 262 262
306 302 299 297 296 295 294 293 293 293 293 295 294 293 290 287 285 282 280 279 276 273 270 268 268 267 265 264 263 262 261 261 262 263 263 263 263 261 259 259 260 262 263
302 299 298 299 299 299 299 299 300 299 299 298 296 294 292 291 289 287 284 280 277 275 273 271 269 268 266 263 261 261 259 258 258 259 260 262 263 263 262 259 258 259 261
300 300 302 304 305 305 304 303 303 302 300 298 296 294 293 292 290 288 287 285 281 277 274 271 269 267 265 263 262 260 260 259 258 256 255 256 257 259 260 260 261 259 259
303 304 305 305 305 304 304 304 303 302 301 299 298 296 295 294 293 292 290 287 283 280 276 273 270 267 263 258 257 257 256 256 255 254 254 253 253 254 256 258 259 259 259
305 305 305 305 304 304 304 304 303 302 301 300 300 300 298 295 293 292 291 285 279 277 276 273 272 270 268 265 261 258 255 252 252 253 253 253 253 253 253 255 258 259 258
306 307 308 308 309 309 309 307 306 306 306 305 303 298 296 292 293 293 288 287 282 277 272 271 273 273 271 263 261 262 258 257 257 256 253 252 252 253 254 255 256 258 260
311 311 310 310 309 309 308 309 311 310 309 306 305 306 300 292 291 292 291 290 285 276 271 271 274 276 272 267 261 260 258 258 257 254 254 255 255 256 256 257 259 259 258
312 312 313 313 314 314 314 315 313 313 313 312 312 310 304 294 298 295 297 291 288 279 274 274 275 275 273 270 267 263 261 259 257 255 253 250 249 250 253 255 254 255 256
315 315 315 318 319 319 321 321 320 320 320 319 317 315 307 300 303 304 307 303 292 285 277 275 273 270 270 269 267 267 263 260 257 254 251 248 248 248 249 249 249 251 252